Location: Philipsburg
(46.3359°N, 113.2993°W)
Time: 09:34:21
(UTC+00:00)

Envisat - Pass Details

Date: 22 January 2022
Orbit: 764 x 765 km, 98.2° (Epoch: 17 May)

Event Time Altitude Azimuth Distance (km) Brightness Sun altitude
Rises 13:27:00 0° 5° (N) 3,242 6.2 -17.0°
Reaches altitude 10° 13:29:29 10° 356° (N) 2,311 5.3 -16.6°
Maximum altitude 13:34:00 33° 294° (WNW) 1,268 3.6 -15.9°
Drops below altitude 10° 13:38:29 10° 231° (SW) 2,298 5.1 -15.1°
Sets 13:40:58 0° 222° (SW) 3,220 5.9 -14.7°
